COSMOS 2404 (701) 1 28112C 03056A 08195.99983796 -.00000001 00000-0 00000-0 0 1951 2 28112 64.1841 294.6442 0044114 102.6008 229.8088 2.13104556 17 COSMOS 2403 (795) 1 28114C 03056C 08195.99983796 -.00000016 00000-0 00000-0 0 1959 2 28114 64.1994 294.6670 0037534 83.2362 345.4681 2.13104680 18 COSMOS 2413 (796) 1 28508C 04053A 08165.99983796 -.00000012 00000-0 00000-0 0 1654 2 28508 64.0970 294.5810 0011761 155.8818 68.9166 2.13103833 13 COSMOS 2411 (712) 1 28509C 04053B 08195.99983796 -.00000006 00000-0 00000-0 0 1954 2 28509 64.0701 293.4935 0007234 160.5907 126.1133 2.13103021 14 COSMOS 2412 (797) 1 28510C 04053C 08168.99983796 -.00000015 00000-0 00000-0 0 1686 2 28510 64.1018 294.4961 0004206 166.8278 241.3698 2.13103113 12 COSMOS 2419 (714) 1 28915C 05050A 08195.99983796 .00000000 00000-0 00000-0 0 1956 2 28915 64.8663 174.9616 0009705 323.3165 351.7491 2.13102121 12 COSMOS 2418 (713) 1 28916C 05050B 08195.99983796 .00000013 00000-0 00000-0 0 1951 2 28916 64.8848 174.9866 0020935 330.3601 296.6099 2.13103478 13 COSMOS 2425 (716) 1 29670C 06062A 08195.99983796 -.00000000 00000-0 00000-0 0 1950 2 29670 65.1679 54.4470 0024168 356.0971 306.5445 2.13103553 17 COSMOS 2426 (717) 1 29671C 06062B 08195.99983796 -.00000000 00000-0 00000-0 0 1951 2 29671 65.1840 54.4686 0019140 164.4691 3.8729 2.13104136 11 COSMOS 2424 (715) 1 29672C 06062C 08195.99983796 -.00000000 00000-0 00000-0 0 1952 2 29672 65.1695 54.4498 0016696 162.7507 185.7312 2.13103872 15 COSMOS 2433 (720) 1 32275C 07052A 08195.99983796 .00000000 00000-0 00000-0 0 1954 2 32275 64.8784 174.6966 0005113 272.0356 224.2015 2.13102586 17 COSMOS 2432 (719) 1 32276C 07052B 08195.99983796 .00000011 00000-0 00000-0 0 1957 2 32276 64.8917 174.7138 0016378 331.4674 119.6326 2.13102311 14 COSMOS 2431 (718) 1 32277C 07052C 08195.99983796 .00000019 00000-0 00000-0 0 1956 2 32277 64.8943 174.7070 0018730 198.4306 27.8427 2.13102592 19 COSMOS 2434 (721) 1 32393C 07065A 08195.99983796 -.00000002 00000-0 00000-0 0 1952 2 32393 64.7850 55.1350 0005914 112.4159 279.3787 2.13103374 11 COSMOS 2436 (723) 1 32395C 07065C 08195.99983796 -.00000000 00000-0 00000-0 0 1952 2 32395 64.7976 55.1322 0018854 1.6337 120.6038 2.13103898 13